Showing default

QPS-SAR-7 TSUKUYOMI-II, 59447

Orbit data source: Space-Track

QPS-SAR-7 TSUKUYOMI-II, 59447 is a payload satellite owned by QPS Labs (JP) in LEO that was launched on Sun, 07 Apr 2024 UTC via an FALCON 9 launch vehicle from the Air Force Eastern Test Range (AFETR). Payload-class satellites include a variety of spacecraft equipped with specific instruments for various scientific and technological missions. These include communications satellites like Starlink; space stations such as the ISS; scientific satellites like the Hubble; Earth observation satellites from companies like Planet Labs, Umbra, and HawkEye 360; GPS; miniature CubeSats for education and research; and military/defense satellites.

Loading next visibility...
Identifier
59447, 2024-066F
Orbit
LEO
Country
Flag of JPJP / JPN
Related business
Manufacturer
QPS Labs
Mission
Operational Commercial Radar Imaging
Bus & Motor
QSAT, Unknown motor
Mass
~120 kg wet, ~100 kg dry
Launch date (UTC)
2024-04-07 (2 years ago)
Launch vehicle
FALCON 9
Launch site
Air Force Eastern Test Range (AFETR)
Object type
Payload
Rocket body
Debris
Shape & HBR
Hex Cyl + 2 Pan + 1 Dish, 1.8 m
Radar Cross Section
1.179 m², Large (>1 m²)

Expand to show TLE details & history
Last TLE update: 17 hours ago

TLE from 17 hours ago
0 QPS-SAR-7 TSUKUYOMI-II
1 59447U 24066F   26036.93357204  .00016464  00000-0  10987-2 0  9995
2 59447  45.6029 213.1953 0001715 244.9821 115.0885 15.06930015100419
Epoch: 2026-02-05T22:24Z
TLE epoch observation values (Epoch: 2026-02-05T22:24:20.624Z)
Latitude
-0.00003°
Longitude
101.03065°
Altitude
546.157 km
Speed
7.59 km/s
True Right ascension
14h 12m 46s
True Declination
0° 00' 00"
Sunlit
Object was in daylight at epoch
Visualization orbit readout
Latitude
Unknown
Longitude
Unknown
Altitude
Unknown
Speed
Unknown
Apparent Right ascension
Unknown
Apparent Declination
Unknown
Sunlit
N/A
Visualization observer readout
Local Sidereal Time
17:45:35
Azimuth
Unknown
Elevation
Unknown
Doppler factor
Unknown
Orbital elements
Apogee altitude
548.27 km
Perigee altitude
545.894 km
Semi-major axis
6,925.219 km
Eccentricity
0.00017
Inclination
45.6029°
RAAN
213.1953°
Arg. of periapsis
244.9821°
True anomaly
115.1063°
Mean anomaly
115.0885°
Eccentric anomaly
115.0974°
Mean motion
3.76611 °/min
Orbital period
95.59 mins
BSTAR
0.0010987
Loading maneuver chart data...
Computing Atmospheric mass density...
Loading historical data...
Loading historical data...
Loading historical data...
Loading historical data...
Loading historical data...
Loading historical data...
Loading historical data...

Documentation

Showing up to 5 results
|